Regional Weather Roundup
Issued by NWS

Home | Current Version | Previous Version | Text Only | Print | Product List | Glossary On
Versions: 1 2 3 4 5 6 7 8 9 10 11 12 13 14 15 16 17 18 19 20 21 22 23 24 25 26 27 28 29 30 31 32 33 34 35 36 37 38 39 40 41 42 43 44 45 46 47 48 49 50
260
ASUS44 KEWX 280903
RWRTX
SOUTH TEXAS REGIONAL WEATHER ROUNDUP
NATIONAL WEATHER SERVICE AUSTIN/SAN ANTONIO TX
300 AM CST TUE FEB 28 2017

NOTE: "FAIR" INDICATED FEW OR NO CLOUDS BELOW 12,000 FEET WITH NO
SIGNIFICANT WEATHER AND/OR OBSTRUCTIONS TO VISIBILITY.

* - THESE STATIONS ARE NOT NWS OR FAA STATIONS...AND ARE NOT SUBJECT
    TO NWS AND FAA QUALITY CONTROL.

TXZ171-172-183>190-281000-
TEXAS HILL COUNTRY AND EDWARDS PLATEAU

CITY           SKY/WX    TMP DP  RH WIND       PRES   REMARKS
JUNCTION       PTCLDY    66  63  90 CALM      29.90F
*LLANO         CLOUDY    66  64  94 CALM      29.95F
BURNET         CLOUDY    67  64  90 S7        29.94F FOG
*HORSESHOE BAY   N/A     69  65  89 S7        29.92F
*KERRVILLE     CLOUDY    66  65  96 S8        29.94F FOG
*FREDERICKSBRG CLOUDY    67  63  88 S8        29.94F
*ROCKSPRINGS   CLOUDY    64  64 100 S15       29.95F FOG
*BOERNE STAGE  CLOUDY    64  64 100 S8        29.95F
*CASTROVILLE   CLOUDY    69  69  98 SE7       29.94S FOG
HONDO          CLOUDY    69  67  93 SE7       29.92S FOG
*UVALDE        CLOUDY    66  65  99 CALM      29.93S FOG
DEL RIO        CLEAR     64  61  90 E7        29.87F
LAUGHLIN AFB   MOCLDY    62  62  99 E8        29.87F
CARRIZO SPRGS  PTCLDY    66  66 100 SE5       29.87F FOG
*EAGLE PASS    SUNNY     61  59  94 E6        29.88F FOG
$$

TXZ173-191>194-202-209-217>225-228-281000-
CENTRAL AND SOUTH CENTRAL TEXAS

CITY           SKY/WX    TMP DP  RH WIND       PRES   REMARKS
GEORGETOWN     CLOUDY    70  63  78 S10       29.92F
AUSTIN/BERGSTM CLOUDY    71  68  90 S9        29.92F
AUSTIN/MABRY   CLOUDY    71  66  84 S5        29.93F
*AUSTIN/EXEC   CLOUDY    68  68 100 S8        29.93F
*LAGO VISTA    CLOUDY    69  66  92 S10G16    29.95S FOG
SAN MARCOS     CLOUDY    70  66  88 S8        29.94F
NEW BRAUNFELS  CLOUDY    71  67  87 S10       29.92S FOG
RANDOLPH AFB   CLOUDY    70  70 100 S8        29.93S FOG
PT SAN ANTONIO CLOUDY    70  68  93 SE10      29.91S
SAN ANTONIO    CLOUDY    69  67  93 SE13      29.94S
STINSON FIELD  LGT RAIN  71  68  90 S8        29.91S FOG
*PLEASANTON    CLOUDY    71  68  89 SE6       29.91S
*LA GRANGE     CLOUDY    72  71  95 S6        29.92F FOG
*GIDDINGS      CLOUDY    68  67  95 S5        29.94F FOG
*GONZALES      CLOUDY    72  71  96 S5        29.92S FOG
$$

TXZ163>164-176>182-195>201-210>213-226-227-235-281000-
SOUTHEAST TEXAS

CITY           SKY/WX    TMP DP  RH WIND       PRES   REMARKS
COLLEGE STN    CLOUDY    71  69  93 S9        29.94F FOG
*BRYAN         CLOUDY    70  70 100 S8        29.95F
*CALDWELL      NOT AVBL
*CROCKETT      CLOUDY    68  66  94 SE5       29.99F FOG
*BRENHAM       CLOUDY    73  71  93 S7        29.94F
HUNTSVILLE     CLOUDY    72  68  87 S8        29.96F
CONROE         CLOUDY    72  69  90 S9        29.96F
HOUSTON BUSH   CLOUDY    74  69  85 S9        29.96F
HOUSTON HOBBY  CLOUDY    73  70  90 S9        29.97F
*HOUSTON SW AP CLOUDY    71  70  96 SE5       29.98S FOG
PEARLAND       CLOUDY    74  70  87 S7        29.99F
HOUSTON HOOKS  CLOUDY    73  70  90 S7        29.96F
ELLINGTON FLD  CLOUDY    73  72  94 SE13      30.00S FOG
SUGAR LAND     CLOUDY    73  71  93 S10       29.96F
*HOUSTON EXEC  CLOUDY    72  72 100 S9        29.97F FOG
*CLEVELAND MUN CLOUDY    72  69  92 S9        29.98F FOG
*WHARTON       CLOUDY    73  70  91 S10       29.96F FOG
*COLUMBUS      CLOUDY    72  70  93 S10       29.95F
*EAGLE LAKE    CLOUDY    74  73  96 S10       29.94F FOG
$$

TXZ214>216-236>238-281000-
THE UPPER TEXAS COAST

CITY           SKY/WX    TMP DP  RH WIND       PRES   REMARKS
*ORANGE        CLOUDY    71  69  95 S12       30.02F
PORT ARTHUR    CLOUDY    72  68  87 S13       30.00F
GALVESTON      CLOUDY    71  70  96 SE14      29.99F FOG
ANGLETON       CLOUDY    73  71  93 S14       29.98S
*BAY CITY      CLOUDY    73  73 100 S12       29.96F FOG
PALACIOS       CLOUDY    71  70  96 SE12      29.95F FOG
$$

TXZ229>234-239>247-281000-
TEXAS COASTAL BEND AND RIO GRANDE PLAINS

CITY           SKY/WX    TMP DP  RH WIND       PRES   REMARKS
VICTORIA       CLOUDY    74  71  91 S15       29.93F
*BEEVILLE      CLOUDY    67  67 100 S12       29.90F FOG
ROCKPORT       CLOUDY    73  70  90 S12       29.92F FOG
*PORT ARANSAS  CLOUDY    70  69  98 S14       29.92F FOG
*PORT LAVACA   CLOUDY    72  72 100 CALM      29.94F FOG
*INGLESIDE     CLOUDY    74  72  93 S15G22    29.92F
CORPUS CHRISTI CLOUDY    73  71  93 SE17      29.91F
CORPUS NAS     CLOUDY    72  72 100 SE17      29.91F FOG
*ROBSTOWN      CLOUDY    75  74  98 SE15      29.91F
ALICE          CLOUDY    73  71  93 SE8       29.89F FOG
KINGSVILLE NAS CLOUDY    75  72  90 SE9       29.89F FOG
COTULLA        CLOUDY    72  67  84 SE8       29.89S
*FAITH RANCH   CLEAR     70  66  88 SE9       29.87S
LAREDO         PTCLDY    70  67  90 E7        29.88S
$$

TXZ248>255-281000-
DEEP SOUTH TEXAS

CITY           SKY/WX    TMP DP  RH WIND       PRES   REMARKS
BROWNSVILLE    CLEAR     74  71  91 S15       29.92S
PORT ISABEL    MOCLDY    74  72  93 S12       29.91F FOG
*SOUTH PADRE   NOT AVBL
HARLINGEN      MOCLDY    74  72  93 S16       29.89F
*HEBBRONVILLE  CLOUDY    73  67  82 S8        29.89F
MCALLEN        CLOUDY    77  70  79 SE14G23   29.88F HAZE
*WESLACO       CLOUDY    74  70  85 S12G22    29.88F FOG
FALFURRIAS     CLOUDY    76  70  81 SE8       29.89F
EDINBURG       CLOUDY    77  70  78 S13G20    29.89F HAZE
*ZAPATA        CLOUDY    73  68  84 SE8       29.87R HAZE
$$

TXZ213>215-236>238-242>244-246-247-251-254-255-281000-
CMAN STATIONS

STATION/POSITION TIME  TEMP    WIND        PRES    WAVE
                       AIR SEA DIR/SP/G            HT/PER
                 (UTC) (F)     (DEG/KT/KT) (MB)    (FT/S)
SABINE PASS      0830   69 69  160/ 12/ 16 1017.6
SEA RIM ST PARK  0800   69     160/ 13/ 17 1016.9
NORTH JETTY/GLS  0830   72 67  150/ 16/ 18   N/A
EAGLE POINT      0830   71 69  180/ 15/ 18 1015.4
MORGANS POINT    0830   70 69  150/  7/ 11 1015.5
MISSION/ARANSAS  0800   72                 1014.0
PORT O`CONNOR    0830   69     130/  7/  9 1013.8
PORT ARANSAS     0800   70 69  140/ 12/ 13 1013.5
MALAQUITE BEACH  0830   70 71  120/ 10/ 11 1013.9
BAFFIN BAY       0830   72 73  130/ 12/ 16 1013.1
PORT ISABEL      0830   74 73  150/ 10/ 14 1013.3
$$

GMZ080-GMZ150>470-281000-
OFFSHORE BUOY REPORTS

STATION/POSITION TIME  TEMP    WIND        PRES    WAVE
                       AIR SEA DIR/SP/G            HT/PER
                 (UTC) (F)     (DEG/KT/KT) (MB)    (FT/S)
20 E GALVESTON   0750   69 67  160/ 14/ 16 1016.0    4/ 7
90 E PT ARANSAS  0750   72 69  150/ 12/ 14 1015.1    4/ 7
35 NE PT MANSFLD 0750   75     170/ 16/ 17 1013.0    5/ 7
200 E PT ISABEL  0750   75 74  140/ 16/ 17 1016.0    6/ 8
$$




USA.gov is the U.S. government's official web portal to all federal, state and local government web resources and services.